FW3877 Weather Reports


Display with metric or nautical units.
time (UTC)temp
F
wind
direction
speed
MPH
gust
MPH
rain 1hr
in
rain 24hr
in
rain mn
in
humidity
%
barometer
mb
20260906193204 57 271 4.0 10.0 0.00 0.03 0.06 94 1010.3
20260906192704 57 267 9.0 15.0 0.00 0.03 0.06 94 1010.3
20260906192203 57 260 5.0 9.0 0.01 0.03 0.06 94 1010.2
20260906191704 57 265 5.0 8.0 0.01 0.03 0.06 94 1010.1
20260906191203 58 252 5.0 10.0 0.01 0.03 0.06 94 1010.0
20260906190705 58 253 8.0 13.0 0.01 0.03 0.06 94 1009.9
20260906190204 58 264 8.0 12.0 0.01 0.03 0.06 94 1009.8
20260906185204 58 251 6.0 12.0 0.01 0.03 0.06 94 1009.6
20260906184204 58 253 9.0 13.0 0.01 0.03 0.06 93 1009.7
20260906183704 58 268 8.0 14.0 0.01 0.03 0.06 93 1009.6
20260906183204 59 269 7.0 12.0 0.01 0.03 0.06 93 1009.4
20260906182704 59 287 7.0 15.0 0.01 0.03 0.06 92 1009.5
20260906182203 59 260 6.0 13.0 0.00 0.02 0.05 92 1009.4
20260906181704 60 269 7.0 13.0 0.00 0.02 0.05 92 1009.4
20260906181204 60 267 6.0 14.0 0.00 0.02 0.05 92 1009.3
20260906180704 60 274 6.0 10.0 0.00 0.02 0.05 92 1009.3
20260906180204 61 283 4.0 12.0 0.00 0.02 0.05 92 1009.4
20260906175704 61 272 4.0 12.0 0.00 0.02 0.05 92 1009.3
20260906175204 61 266 6.0 10.0 0.00 0.02 0.05 92 1009.3
20260906174703 61 270 5.0 12.0 0.00 0.02 0.05 92 1009.3
20260906174204 61 251 7.0 15.0 0.00 0.02 0.05 92 1009.1
20260906173704 61 273 6.0 10.0 0.00 0.02 0.05 92 1009.2
20260906173203 61 253 6.0 12.0 0.00 0.02 0.05 92 1009.1
20260906172703 61 245 4.0 9.0 0.00 0.02 0.05 92 1009.0
20260906172204 61 242 3.0 9.0 0.00 0.02 0.05 92 1009.0
20260906171704 61 243 7.0 15.0 0.00 0.02 0.05 92 1008.9
20260906171204 62 251 5.0 12.0 0.00 0.02 0.05 92 1008.8
20260906170704 62 250 8.0 17.0 0.00 0.02 0.05 92 1008.8
20260906170204 62 242 9.0 15.0 0.00 0.02 0.05 91 1008.7
20260906165204 63 244 13.0 20.0 0.00 0.02 0.05 91 1008.5
20260906164703 63 241 11.0 18.0 0.00 0.02 0.05 90 1008.4
20260906164204 64 234 8.0 18.0 0.00 0.02 0.05 90 1008.3
20260906163703 64 230 10.0 18.0 0.00 0.02 0.05 90 1008.2
20260906163204 64 240 10.0 18.0 0.00 0.02 0.05 90 1008.2
20260906162704 64 237 9.0 16.0 0.00 0.02 0.05 90 1008.1
20260906162203 64 234 11.0 18.0 0.00 0.02 0.05 89 1008.2
20260906161704 64 249 13.0 22.0 0.00 0.02 0.05 89 1008.1
20260906161205 64 238 12.0 20.0 0.00 0.02 0.05 89 1008.1
20260906160203 64 278 12.0 18.0 0.00 0.02 0.05 89 1008.0
20260906155704 64 240 11.0 20.0 0.00 0.02 0.05 89 1008.0
20260906155204 64 251 11.0 20.0 0.00 0.02 0.05 89 1008.0
20260906154703 64 251 14.0 24.0 0.00 0.02 0.05 89 1008.0
20260906154205 64 245 10.0 18.0 0.00 0.02 0.05 89 1008.0
20260906153704 64 238 13.0 22.0 0.00 0.02 0.05 89 1008.0
20260906153204 65 242 12.0 25.0 0.00 0.02 0.05 89 1007.9
20260906152704 65 238 15.0 24.0 0.00 0.02 0.05 88 1007.8
20260906152203 65 242 16.0 23.0 0.00 0.02 0.05 88 1007.7
20260906151704 65 234 13.0 21.0 0.00 0.02 0.05 88 1007.8
20260906151204 65 245 15.0 25.0 0.00 0.02 0.05 88 1007.7
20260906150704 66 235 15.0 25.0 0.00 0.02 0.05 88 1007.6
20260906145203 65 232 15.0 23.0 0.00 0.02 0.05 90 1007.8
20260906144204 65 231 14.0 24.0 0.02 0.02 0.05 91 1007.8
20260906143704 65 245 14.0 26.0 0.02 0.02 0.05 91 1007.8
20260906143203 66 244 12.0 23.0 0.02 0.02 0.05 91 1007.8
20260906142703 66 237 14.0 23.0 0.02 0.02 0.05 91 1007.6
20260906142204 66 239 13.0 26.0 0.02 0.02 0.05 91 1007.7
20260906141704 66 234 15.0 24.0 0.02 0.02 0.05 92 1007.6
20260906141204 66 250 9.0 21.0 0.02 0.02 0.05 93 1007.5
20260906140704 66 247 13.0 20.0 0.02 0.02 0.05 93 1007.4
20260906135704 66 237 9.0 17.0 0.02 0.02 0.05 93 1007.4
20260906135204 66 241 12.0 25.0 0.02 0.02 0.05 93 1007.4
20260906134704 66 240 9.0 18.0 0.01 0.02 0.04 93 1007.3
20260906134203 66 235 12.0 22.0 0.00 0.01 0.03 93 1007.3
20260906133703 66 220 12.0 20.0 0.00 0.01 0.03 93 1007.1
20260906132704 67 210 13.0 21.0 0.00 0.01 0.03 93 1007.2
20260906132203 66 208 16.0 21.0 0.00 0.01 0.03 93 1007.2
20260906131704 66 200 14.0 22.0 0.00 0.01 0.03 94 1007.2
20260906131204 66 218 13.0 22.0 0.00 0.01 0.03 94 1007.3
20260906130204 65 216 13.0 20.0 0.00 0.01 0.03 94 1007.4
20260906125704 65 226 14.0 23.0 0.00 0.01 0.03 94 1007.2
20260906124704 66 210 13.0 22.0 0.00 0.01 0.03 94 1007.3
20260906124204 66 218 13.0 21.0 0.00 0.01 0.03 95 1007.2
20260906123204 65 224 14.0 26.0 0.01 0.01 0.03 95 1007.2
20260906122704 65 219 16.0 26.0 0.01 0.01 0.03 95 1007.2
20260906122204 65 216 12.0 24.0 0.01 0.01 0.03 95 1007.2
20260906121704 65 213 12.0 21.0 0.01 0.01 0.03 95 1007.0
20260906121203 65 216 14.0 23.0 0.01 0.01 0.03 95 1007.0
20260906120704 65 209 12.0 24.0 0.01 0.01 0.03 95 1007.1
20260906120203 65 206 14.0 21.0 0.01 0.01 0.03 95 1007.2
20260906115703 65 217 7.0 22.0 0.01 0.01 0.03 95 1007.1
20260906114703 64 197 10.0 14.0 0.01 0.01 0.03 94 1007.0
20260906114204 64 190 10.0 16.0 0.01 0.01 0.03 94 1007.1
20260906113704 64 204 10.0 13.0 0.01 0.01 0.03 94 1007.0
20260906113204 64 198 13.0 23.0 0.00 0.00 0.02 94 1007.0
20260906112704 64 200 10.0 21.0 0.00 0.00 0.02 94 1007.0
20260906112203 64 208 13.0 20.0 0.00 0.00 0.02 94 1007.0
20260906111704 64 212 12.0 20.0 0.00 0.00 0.02 94 1007.0
20260906111204 64 213 12.0 20.0 0.00 0.00 0.02 93 1006.9
20260906110704 65 209 11.0 20.0 0.00 0.00 0.02 93 1006.9
20260906110204 65 202 11.0 26.0 0.00 0.00 0.02 93 1007.0
20260906105704 65 197 13.0 26.0 0.00 0.00 0.02 92 1007.0
20260906105204 65 205 14.0 28.0 0.00 0.00 0.02 92 1007.0
20260906104704 65 212 12.0 26.0 0.00 0.00 0.02 92 1007.0
20260906104204 65 206 13.0 25.0 0.00 0.00 0.02 92 1007.0
20260906103204 65 192 13.0 23.0 0.00 0.00 0.02 92 1007.0
20260906102704 65 204 16.0 31.0 0.00 0.00 0.02 91 1007.0
20260906102204 65 191 13.0 23.0 0.00 0.00 0.02 91 1006.8
20260906101704 65 202 13.0 28.0 0.00 0.00 0.02 91 1007.1
20260906101204 65 186 17.0 33.0 0.00 0.00 0.02 91 1007.0
20260906100703 65 196 16.0 24.0 0.00 0.00 0.02 90 1006.8
20260906100204 65 191 14.0 24.0 0.00 0.00 0.02 90 1007.1
20260906095204 66 194 19.0 32.0 0.00 0.00 0.02 89 1007.1
20260906093704 65 200 15.0 33.0 0.00 0.00 0.02 90 1007.4
20260906093204 65 192 15.0 29.0 0.00 0.00 0.02 90 1007.3
20260906092704 65 209 17.0 26.0 0.00 0.00 0.02 91 1007.4
20260906092204 65 205 13.0 26.0 0.00 0.00 0.02 91 1007.5
20260906091704 64 192 14.0 28.0 0.00 0.00 0.02 91 1007.5
20260906091203 64 192 13.0 20.0 0.00 0.00 0.02 91 1007.6
20260906090704 64 193 11.0 21.0 0.00 0.00 0.02 91 1007.6
20260906090204 64 178 15.0 22.0 0.00 0.00 0.02 90 1007.6
20260906085703 65 196 12.0 22.0 0.00 0.00 0.02 89 1007.8
20260906084705 65 175 16.0 29.0 0.00 0.00 0.02 88 1008.0
20260906084205 65 200 12.0 24.0 0.00 0.00 0.02 89 1008.1
20260906083204 65 183 12.0 26.0 0.00 0.00 0.02 89 1007.8
20260906082703 65 172 9.0 21.0 0.00 0.00 0.02 90 1007.8
20260906082204 65 170 11.0 24.0 0.00 0.00 0.02 90 1007.6
20260906081704 65 187 10.0 33.0 0.00 0.00 0.02 90 1007.7
20260906081204 65 178 10.0 26.0 0.00 0.00 0.02 90 1007.7
20260906080703 64 198 13.0 18.0 0.00 0.00 0.02 90 1007.9
20260906080204 64 181 12.0 26.0 0.00 0.00 0.02 91 1008.0
20260906075704 64 191 12.0 26.0 0.00 0.00 0.02 91 1008.0
20260906075204 64 184 14.0 24.0 0.00 0.00 0.02 91 1008.0
20260906074704 64 184 13.0 23.0 0.00 0.00 0.02 91 1008.2
20260906074204 64 191 8.0 21.0 0.00 0.00 0.02 91 1008.3
20260906073203 64 163 12.0 23.0 0.00 0.00 0.02 92 1008.5
20260906072704 64 178 13.0 21.0 0.00 0.00 0.02 92 1008.6
20260906072203 64 180 12.0 20.0 0.00 0.00 0.02 92 1008.7
20260906071703 64 178 12.0 22.0 0.00 0.00 0.02 92 1008.8
20260906071204 63 188 12.0 26.0 0.00 0.00 0.02 92 1008.8
20260906070704 63 179 9.0 18.0 0.00 0.00 0.02 93 1008.9
20260906070203 63 192 12.0 20.0 0.00 0.00 0.02 93 1008.9
20260906065704 63 187 11.0 23.0 0.00 0.00 0.02 93 1009.1
20260906065203 63 203 11.0 20.0 0.00 0.00 0.02 93 1009.2
20260906064704 63 183 10.0 24.0 0.00 0.00 0.02 93 1009.3
20260906064203 63 206 9.0 18.0 0.00 0.00 0.02 93 1009.4
20260906063703 63 203 10.0 18.0 0.00 0.00 0.02 94 1009.4
20260906063203 63 321 13.0 22.0 0.00 0.00 0.02 94 1009.6
20260906062704 63 184 11.0 26.0 0.00 0.00 0.02 94 1009.6
20260906062204 63 191 10.0 23.0 0.00 0.00 0.02 94 1009.7
20260906061704 63 181 10.0 18.0 0.00 0.00 0.02 94 1009.7
20260906060716 64 178 9.0 15.0 0.00 0.00 0.02 93 1009.9
20260906055704 64 210 10.0 22.0 0.00 0.00 0.02 93 1009.9
20260906055204 64 205 12.0 21.0 0.00 0.00 0.02 93 1010.0
20260906054704 64 202 13.0 24.0 0.00 0.00 0.02 92 1010.0
20260906054204 64 195 13.0 26.0 0.00 0.00 0.02 92 1010.2
20260906053703 64 216 12.0 20.0 0.00 0.00 0.02 92 1010.0
20260906051204 64 184 11.0 20.0 0.00 0.00 0.02 92 1010.4
20260906050704 64 199 10.0 15.0 0.00 0.01 0.02 92 1010.5
20260906050204 64 185 11.0 22.0 0.00 0.01 0.02 92 1010.6
20260906045704 64 207 8.0 17.0 0.00 0.01 0.02 92 1010.7
20260906045204 64 201 12.0 20.0 0.00 0.01 0.02 92 1010.7
20260906044704 64 176 7.0 18.0 0.00 0.01 0.02 92 1010.9
20260906044204 65 197 9.0 14.0 0.00 0.01 0.02 92 1010.9
20260906043703 65 167 7.0 20.0 0.00 0.01 0.02 92 1011.1
20260906043204 65 188 10.0 20.0 0.00 0.01 0.02 92 1011.2
20260906042704 64 184 10.0 20.0 0.00 0.01 0.02 92 1011.2
20260906042205 65 186 5.0 12.0 0.00 0.01 0.02 92 1011.3
20260906041704 65 173 6.0 18.0 0.00 0.01 0.02 92 1011.5
20260906041204 64 165 10.0 22.0 0.00 0.01 0.02 92 1011.4
20260906040703 64 183 9.0 20.0 0.00 0.01 0.02 93 1011.5
20260906040204 64 171 9.0 18.0 0.00 0.01 0.02 93 1011.5
20260906035704 64 147 10.0 20.0 0.00 0.01 0.02 93 1011.5
20260906035204 64 165 7.0 21.0 0.00 0.01 0.02 93 1011.7
20260906034704 64 162 13.0 21.0 0.00 0.01 0.02 93 1011.6
20260906034203 64 187 12.0 22.0 0.00 0.01 0.02 93 1011.8
20260906033703 64 164 10.0 17.0 0.00 0.01 0.02 93 1011.9
20260906033204 64 195 11.0 22.0 0.00 0.01 0.02 93 1011.8
20260906032203 64 175 11.0 26.0 0.00 0.01 0.02 93 1011.9
20260906031704 64 193 10.0 20.0 0.00 0.02 0.02 93 1011.9
20260906031204 64 197 10.0 20.0 0.00 0.02 0.02 93 1011.9
20260906030705 64 183 12.0 21.0 0.00 0.02 0.02 93 1011.9
20260906030204 64 197 14.0 26.0 0.00 0.02 0.02 93 1011.8
20260906025703 63 182 10.0 26.0 0.00 0.02 0.02 93 1012.0
20260906024704 63 188 17.0 26.0 0.00 0.02 0.02 93 1012.0
20260906024203 63 192 12.0 21.0 0.00 0.02 0.02 93 1012.2
20260906023204 63 177 13.0 23.0 0.00 0.02 0.02 93 1012.5
20260906022204 63 175 10.0 20.0 0.00 0.02 0.02 93 1012.7
20260906021704 63 195 12.0 21.0 0.00 0.02 0.02 93 1012.8
20260906020704 63 213 12.0 21.0 0.00 0.02 0.02 93 1012.9
20260906015703 63 183 10.0 20.0 0.00 0.02 0.02 93 1013.1
20260906015204 63 175 8.0 22.0 0.00 0.02 0.02 93 1013.1
20260906014203 63 176 10.0 20.0 0.00 0.02 0.02 93 1013.3
20260906013704 63 199 10.0 20.0 0.00 0.02 0.02 93 1013.5
20260906013203 63 167 10.0 20.0 0.00 0.02 0.02 93 1013.4
20260906012704 63 186 10.0 22.0 0.00 0.02 0.02 93 1013.6
20260906012204 63 172 7.0 20.0 0.00 0.02 0.02 93 1013.7
20260906011704 63 199 7.0 24.0 0.00 0.02 0.02 93 1013.8
20260906011203 63 190 11.0 18.0 0.00 0.02 0.02 93 1013.9
20260906010703 63 200 10.0 20.0 0.00 0.02 0.02 93 1014.0
20260906010205 63 203 10.0 21.0 0.00 0.02 0.02 93 1014.1
20260906005704 63 208 9.0 15.0 0.00 0.02 0.02 93 1014.1
20260906005204 63 197 10.0 20.0 0.00 0.02 0.02 93 1014.1
20260906004703 63 196 10.0 20.0 0.00 0.02 0.02 94 1014.2
20260906004203 63 205 9.0 17.0 0.00 0.02 0.02 94 1014.1
20260906003703 63 209 11.0 15.0 0.00 0.02 0.02 94 1014.2
20260906003203 63 192 13.0 18.0 0.00 0.02 0.02 93 1014.3
20260906002704 63 206 9.0 18.0 0.00 0.02 0.02 93 1014.2
20260906002204 62 204 12.0 18.0 0.00 0.02 0.02 93 1014.3
20260906001704 62 211 12.0 20.0 0.00 0.02 0.02 94 1014.2
20260906001204 62 214 11.0 20.0 0.00 0.02 0.02 94 1014.4
20260906000704 62 197 13.0 20.0 0.00 0.02 0.02 94 1014.3
20260906000204 62 207 8.0 20.0 0.00 0.02 0.02 94 1014.4
20260905235704 62 209 9.0 14.0 0.00 0.02 0.02 94 1014.4
20260905235204 62 199 7.0 14.0 0.00 0.02 0.02 94 1014.5
20260905234704 62 202 10.0 17.0 0.00 0.02 0.02 94 1014.5
20260905234203 61 278 6.0 15.0 0.00 0.02 0.02 94 1014.5
20260905233704 61 187 6.0 16.0 0.00 0.02 0.02 94 1014.6
20260905233204 61 182 9.0 15.0 0.00 0.02 0.02 94 1014.6
20260905232704 61 174 6.0 13.0 0.00 0.02 0.02 94 1014.7
20260905232204 61 174 8.0 14.0 0.00 0.02 0.02 94 1014.7
20260905230704 60 172 11.0 16.0 0.00 0.02 0.02 93 1014.9
20260905223704 59 164 9.0 17.0 0.00 0.02 0.02 93 1015.3
20260905223203 59 159 11.0 16.0 0.00 0.02 0.02 93 1015.3
20260905222704 59 357 13.0 17.0 0.00 0.02 0.02 92 1015.3
20260905222204 59 147 6.0 13.0 0.00 0.02 0.02 92 1015.3
20260905221704 59 205 5.0 14.0 0.00 0.02 0.02 92 1015.5
20260905221204 59 179 7.0 12.0 0.00 0.02 0.02 92 1015.5
20260905220704 59 179 3.0 16.0 0.00 0.02 0.02 92 1015.8
20260905215704 59 160 7.0 18.0 0.00 0.02 0.02 91 1015.7
20260905215203 59 174 5.0 15.0 0.00 0.02 0.02 91 1015.8
20260905214703 59 60 6.0 18.0 0.00 0.02 0.02 91 1015.8
20260905214204 59 152 6.0 14.0 0.00 0.02 0.02 91 1015.8
20260905213705 59 158 5.0 10.0 0.00 0.02 0.02 91 1016.0
20260905213204 59 172 6.0 13.0 0.00 0.02 0.02 91 1016.0
20260905212204 59 176 14.0 21.0 0.00 0.02 0.02 91 1016.0
20260905211704 59 173 11.0 17.0 0.00 0.02 0.02 91 1016.1
20260905211204 59 157 10.0 21.0 0.00 0.02 0.02 91 1016.1
20260905210704 59 176 7.0 13.0 0.00 0.02 0.02 91 1016.5
20260905210204 58 178 9.0 14.0 0.00 0.02 0.02 91 1016.5
20260905205704 58 160 10.0 17.0 0.00 0.02 0.02 91 1016.6
20260905205204 58 165 9.0 16.0 0.00 0.02 0.02 91 1016.5
20260905204703 58 168 10.0 16.0 0.00 0.02 0.02 90 1016.7
20260905204203 58 157 9.0 20.0 0.00 0.02 0.02 90 1016.6
20260905203704 58 186 9.0 18.0 0.00 0.02 0.02 90 1016.8
20260905203204 59 156 12.0 20.0 0.00 0.02 0.02 89 1016.8
20260905202704 59 169 9.0 18.0 0.00 0.02 0.02 89 1017.0
20260905202205 59 177 11.0 17.0 0.00 0.02 0.02 88 1017.1
20260905201204 59 154 11.0 21.0 0.00 0.02 0.02 88 1017.0
20260905200704 59 169 9.0 22.0 0.00 0.02 0.02 88 1017.0
20260905200204 59 169 8.0 16.0 0.00 0.02 0.02 87 1017.0
20260905195704 59 166 9.0 18.0 0.00 0.02 0.02 87 1017.0
20260905195203 59 178 10.0 20.0 0.00 0.02 0.02 86 1017.1
20260905194704 60 180 8.0 20.0 0.00 0.02 0.02 86 1017.1
20260905194203 60 176 11.0 22.0 0.00 0.02 0.02 85 1017.1
20260905193705 60 165 9.0 17.0 0.00 0.02 0.02 84 1017.2